Location: Unspecified
(0.0000°N, 0.0000°E)
Time: 02:06:42
(UTC+00:00)

COSMOS 2251 DEB - Pass Details

Date: 18 May 2026
Orbit: 584 x 719 km, 74.0° (Epoch: 17 May)

Event Time Altitude Azimuth Distance (km) Brightness Sun altitude
Rises 03:03:34 0° 12° (NNE) 3,097 ? -40.2°
Reaches altitude 10° 03:06:25 10° 28° (NNE) 2,168 ? -39.6°
Enters shadow 03:07:39 15° 40° (NE) 1,847 ? -39.3°
